Location: Gombori
(14.9797°N, 2.9419°W)
Time: 22:30:20
(UTC+00:00)

Okean-O - Pass Details

Date: 29 July 2021
Orbit: 638 x 640 km, 98.2° (Epoch: 20 September)

Event Time Altitude Azimuth Distance (km) Brightness Sun altitude
Exits shadow 19:26:58 - 163° (SSE) 2,706 5.5 -10.8°
Reaches altitude 10° 19:28:38 10° 161° (SSE) 2,022 4.8 -11.2°
Maximum altitude 19:33:01 70° 77° (ENE) 679 2.6 -12.2°
Drops below altitude 10° 19:37:24 10° 354° (N) 2,025 5.6 -13.2°
Sets 19:39:36 0° 352° (N) 2,935 6.5 -13.7°
